User: anonymous   Login
Location: Unspecified
(0.0000°N, 0.0000°E)
Time: 00:23:00
(UTC+00:00)
Language:

UNISAT 2 - Orbit

View from above orbital plane
View from above orbital plane
View from above satellite
View from above satellite

Ground track
Ground track

The orbit data is extracted from the following two-line orbital elements,

1 27608U 02058D   24176.15943549  .00001433  00000-0  20272-3 0  9995
2 27608  64.5544  97.9397 0012717  66.5303 293.7138 14.80945584159576
Epoch (UTC): 24 June 2024 03:49:35
Eccentricity: 0.0012717
inclination: 64.5544°
perigee height: 617 km
apogee height: 635 km
right ascension of ascending node: 97.9397°
argument of perigee: 66.5303°
revolutions per day: 14.80945584
mean anomaly at epoch: 293.7138°
orbit number at epoch: 15957

The dashed part of the orbit path shows where the satellite is in the earth's shadow,  

DLR